TimeEDT,TemperatureF,Dew PointF,Humidity,Sea Level PressureIn,VisibilityMPH,Wind Direction,Wind SpeedMPH,Gust SpeedMPH,PrecipitationIn,Events,Conditions,WindDirDegrees,DateUTC
12:02 AM,69.8,64.4,83,29.68,3.0,ENE,15.0,-,0.02,Rain-Thunderstorm,Light Thunderstorms and Rain,70,2013-06-13 04:02:00
12:08 AM,68.0,64.4,88,29.67,3.0,ENE,15.0,-,0.04,Rain-Thunderstorm,Thunderstorms and Rain,70,2013-06-13 04:08:00
12:11 AM,68.0,64.4,88,29.67,2.5,East,13.8,-,0.04,Rain-Thunderstorm,Rain,80,2013-06-13 04:11:00
12:30 AM,68.0,64.4,88,29.67,2.5,East,10.4,-,0.06,Rain,Light Rain,100,2013-06-13 04:30:00
12:39 AM,68.0,64.4,88,29.68,2.5,East,6.9,-,0.06,Rain-Thunderstorm,Light Rain,80,2013-06-13 04:39:00
12:53 AM,68.0,64.9,90,29.67,2.0,NNE,8.1,-,0.10,Rain-Thunderstorm,Rain,30,2013-06-13 04:53:00
1:00 AM,68.0,64.4,88,29.68,1.8,NNE,6.9,-,0.03,Rain-Thunderstorm,Rain,20,2013-06-13 05:00:00
1:10 AM,68.0,64.4,88,29.68,1.5,NNE,5.8,-,0.12,Rain-Thunderstorm,Heavy Rain,30,2013-06-13 05:10:00
1:13 AM,66.2,64.4,94,29.68,1.5,NNE,4.6,-,0.14,Rain-Thunderstorm,Rain,30,2013-06-13 05:13:00
1:32 AM,66.2,64.4,94,29.67,1.5,ENE,8.1,-,0.28,Rain,Heavy Rain,70,2013-06-13 05:32:00
1:39 AM,66.2,64.4,94,29.66,2.0,ENE,8.1,-,0.32,Rain,Rain,60,2013-06-13 05:39:00
1:53 AM,66.9,64.0,90,29.63,2.5,ENE,9.2,-,0.39,Rain,Rain,70,2013-06-13 05:53:00
2:15 AM,66.2,64.4,94,29.63,3.0,ENE,9.2,-,0.06,Rain,Light Rain,70,2013-06-13 06:15:00
2:43 AM,66.2,64.4,94,29.62,4.0,NE,6.9,-,0.11,Rain,Light Rain,50,2013-06-13 06:43:00
2:53 AM,66.9,64.0,90,29.61,3.0,NNE,6.9,-,0.12,Rain,Rain,30,2013-06-13 06:53:00
3:53 AM,66.0,63.0,90,29.62,3.0,NNE,11.5,-,0.12,Rain,Light Rain,20,2013-06-13 07:53:00
4:18 AM,66.2,62.6,88,29.63,4.0,NNE,12.7,20.7,0.04,Rain,Light Rain,20,2013-06-13 08:18:00
4:27 AM,64.4,62.6,94,29.64,4.0,North,11.5,-,0.05,Rain,Light Rain,10,2013-06-13 08:27:00
4:53 AM,64.9,61.0,87,29.63,5.0,North,10.4,-,0.07,Rain,Light Rain,10,2013-06-13 08:53:00
5:53 AM,64.0,60.1,87,29.66,5.0,North,8.1,-,0.00,,Overcast,350,2013-06-13 09:53:00
6:53 AM,63.0,60.1,90,29.69,4.0,NNW,10.4,-,0.01,Rain,Light Rain,340,2013-06-13 10:53:00
7:18 AM,62.6,59.0,88,29.71,4.0,NNW,9.2,-,0.00,,Overcast,340,2013-06-13 11:18:00
7:37 AM,62.6,59.0,88,29.71,3.0,NNW,10.4,-,0.00,,Overcast,330,2013-06-13 11:37:00
7:53 AM,63.0,59.0,87,29.71,4.0,North,10.4,-,0.00,,Overcast,350,2013-06-13 11:53:00
8:53 AM,66.0,60.1,81,29.73,6.0,NNW,11.5,-,N/A,,Haze,340,2013-06-13 12:53:00
9:53 AM,69.1,59.0,70,29.74,10.0,NW,11.5,-,N/A,,Clear,320,2013-06-13 13:53:00
10:53 AM,71.1,55.9,59,29.74,10.0,North,13.8,19.6,N/A,,Clear,350,2013-06-13 14:53:00
11:53 AM,72.0,54.0,53,29.76,10.0,North,17.3,24.2,N/A,,Clear,350,2013-06-13 15:53:00
12:53 PM,73.9,55.9,53,29.78,10.0,NNE,16.1,24.2,N/A,,Clear,20,2013-06-13 16:53:00
1:53 PM,75.9,57.0,52,29.79,10.0,NNE,12.7,20.7,N/A,,Partly Cloudy,20,2013-06-13 17:53:00
2:53 PM,75.9,55.9,50,29.82,10.0,NNE,16.1,23.0,N/A,,Clear,20,2013-06-13 18:53:00
3:53 PM,77.0,54.0,45,29.82,10.0,North,13.8,-,N/A,,Clear,360,2013-06-13 19:53:00
4:53 PM,78.1,55.0,45,29.83,10.0,North,15.0,20.7,N/A,,Partly Cloudy,350,2013-06-13 20:53:00
5:53 PM,77.0,54.0,45,29.84,10.0,NNE,10.4,-,N/A,,Partly Cloudy,20,2013-06-13 21:53:00
6:53 PM,75.9,53.1,45,29.85,10.0,NNW,13.8,-,N/A,,Partly Cloudy,330,2013-06-13 22:53:00
7:53 PM,73.0,53.1,49,29.87,10.0,North,12.7,-,N/A,,Mostly Cloudy,350,2013-06-13 23:53:00
8:53 PM,71.1,54.0,55,29.89,10.0,North,6.9,-,N/A,,Clear,350,2013-06-14 00:53:00
9:53 PM,70.0,55.0,59,29.91,10.0,NNW,10.4,-,N/A,,Overcast,330,2013-06-14 01:53:00
10:53 PM,64.9,57.9,78,29.93,10.0,NNW,4.6,-,0.01,,Overcast,340,2013-06-14 02:53:00
11:53 PM,66.0,59.0,78,29.94,9.0,NNE,6.9,-,0.00,Rain,Light Rain,20,2013-06-14 03:53:00